Погода в Скрантоне

США     41°24′22″N   75°39′42″W
темп.,
°C
ветер,
м/с
пор.,
м/с
влажн.,
%
обл.,
%
осадки,
мм/ч
давл.,
гПа
погр.,
м
20 апреля, вт
вт2023:00+6ююв119045 0.0 101214
02:00+5ю229176 0.0 101225
05:00+5ю249227 0.0 101277
08:00+7юз2986100 0.0 1014502
11:00+11з6146167 0.0 10141396
14:00+12з5115397 0.0 10141713
17:00+12зюз486068 0.0 10141557
20:00+8с127866 0.0 1015102
21 апреля, ср
ср2123:00+6св1283100 0.4 101597
02:00+6в1297100 6.8 1013145
05:00+5вюв239882 0.9 100985
08:00+10ю51391100 1.3 1005944
11:00+13ю6138598 0.1 10021126
14:000сз51396100 9.1 1006605
17:00+1сз61284100 0.5 10081341
20:00−1сз5138698 0.5 10101220
22 апреля, чт
чт2223:00−3зсз4128915 0.0 1011929
02:00−4зсз513836 0.0 10111048
05:00−4зсз5128287 0.0 10121037
08:00−2зсз5137286 0.0 10131224
11:00+3зсз71352100 0.1 10132398
14:00+5зсз71556100 0.3 10122353
17:00+4зсз7155828 0.3 10132040
20:00+2зсз5136582 0.4 10151332
23 апреля, пт
пт2323:000з412705 0.0 1016885
02:00+1зюз413685 0.0 10151003
05:00+1зюз4127249 0.0 1015804
08:00+4зсз5156714 0.0 10151181
11:00+8зсз61563100 0.0 10151667
14:00+12зсз6125390 0.1 10142211
17:00+12зсз6125621 0.3 10151910
20:00+8зсз411725 0.3 1016494
24 апреля, сб
сб2423:00+3зюз11884 0.0 101817
02:00+2ююз11895 0.0 101917
05:00+1ю119114 0.0 101921
08:00+5ююз12745 0.0 1020154
11:00+13з13504 0.0 1018961
14:00+15юз234599 0.0 10161831
17:00+15юз2445100 0.0 10151667
20:00+9ю1170100 0.0 101515